,,Stat6,,Stat2,,Stat8,,Stat9,,Stat10,,Wind1,,Wind1,
time,status,PA1M_AVG,status,PR1M_SUM,status,RH1M_AVG,status,SR1M_AVG,status,TA1M_AVG,status,W1dAve1m,status,W1sAve1m,
2009-03-29, 00:00:00,VALID,917.563,VALID,0,VALID,100,VALID,0.0169808,VALID,21.128,VALID,109,VALID,0,
2009-03-29, 00:01:00,VALID,917.572,VALID,0,VALID,100,VALID,0.0339617,VALID,21.1013,VALID,109,VALID,0,
2009-03-29, 00:02:00,VALID,917.598,VALID,0,VALID,100,VALID,0.0339617,VALID,21.1013,VALID,109,VALID,0,
2009-03-29, 00:03:00,VALID,917.639,VALID,0,VALID,100,VALID,0.0679233,VALID,21.0948,VALID,109,VALID,0,
2009-03-29, 00:04:00,VALID,917.665,VALID,0,VALID,100,VALID,0.0339617,VALID,21.0753,VALID,109,VALID,0,
2009-03-29, 00:05:00,VALID,917.676,VALID,0,VALID,100,VALID,0.0679233,VALID,21.0788,VALID,109,VALID,0,
2009-03-29, 00:06:00,VALID,917.692,VALID,0,VALID,100,VALID,0.0169808,VALID,21.0431,VALID,109,VALID,0,
2009-03-29, 00:07:00,VALID,917.68,VALID,0,VALID,100,VALID,0.0339617,VALID,21.0074,VALID,110,VALID,0,
2009-03-29, 00:08:00,VALID,917.668,VALID,0,VALID,100,VALID,0,VALID,20.9755,VALID,122,VALID,0,
2009-03-29, 00:09:00,VALID,917.653,VALID,0,VALID,100,VALID,-0.0169808,VALID,20.9798,VALID,122,VALID,0,
2009-03-29, 00:10:00,VALID,917.623,VALID,0,VALID,100,VALID,-0.0169808,VALID,20.9733,VALID,122,VALID,0,
2009-03-29, 00:11:00,VALID,917.592,VALID,0,VALID,100,VALID,-0.0339617,VALID,20.9665,VALID,122,VALID,0,
2009-03-29, 00:12:00,VALID,917.565,VALID,0,VALID,100,VALID,-0.0169808,VALID,20.993,VALID,122,VALID,0,
2009-03-29, 00:13:00,VALID,917.536,VALID,0,VALID,100,VALID,-0.0339617,VALID,20.9928,VALID,122,VALID,0,
2009-03-29, 00:14:00,VALID,917.518,VALID,0,VALID,100,VALID,0,VALID,21.0028,VALID,122,VALID,0,
2009-03-29, 00:15:00,VALID,917.492,VALID,0,VALID,100,VALID,-0.0339617,VALID,21.0249,VALID,122,VALID,0,
2009-03-29, 00:16:00,VALID,917.469,VALID,0,VALID,100,VALID,-0.0509425,VALID,21.0157,VALID,122,VALID,0,
2009-03-29, 00:17:00,VALID,917.444,VALID,0,VALID,100,VALID,-0.0509425,VALID,20.9992,VALID,122,VALID,0,
2009-03-29, 00:18:00,VALID,917.426,VALID,0,VALID,100,VALID,0,VALID,21.0187,VALID,122,VALID,0,
2009-03-29, 00:19:00,VALID,917.401,VALID,0,VALID,100,VALID,-0.0169808,VALID,21.0314,VALID,122,VALID,0,
2009-03-29, 00:20:00,VALID,917.403,VALID,0,VALID,100,VALID,0,VALID,21.0379,VALID,122,VALID,0,
2009-03-29, 00:21:00,VALID,917.387,VALID,0,VALID,100,VALID,-0.0509425,VALID,21.0285,VALID,122,VALID,0,
2009-03-29, 00:22:00,VALID,917.37,VALID,0,VALID,100,VALID,-0.0509425,VALID,21.012,VALID,122,VALID,0,
2009-03-29, 00:23:00,VALID,917.355,VALID,0,VALID,100,VALID,0,VALID,20.9795,VALID,122,VALID,0,
2009-03-29, 00:24:00,VALID,917.35,VALID,0,VALID,100,VALID,-0.0169808,VALID,20.9503,VALID,122,VALID,0,
2009-03-29, 00:25:00,VALID,917.328,VALID,0,VALID,100,VALID,0,VALID,20.9276,VALID,122,VALID,0,
2009-03-29, 00:26:00,VALID,917.307,VALID,0,VALID,100,VALID,-0.0169808,VALID,20.9113,VALID,122,VALID,0,
2009-03-29, 00:27:00,VALID,917.294,VALID,0,VALID,100,VALID,-0.0169808,VALID,20.8948,VALID,122,VALID,0,
2009-03-29, 00:28:00,VALID,917.258,VALID,0,VALID,100,VALID,-0.0339617,VALID,20.8854,VALID,122,VALID,0,
2009-03-29, 00:29:00,VALID,917.244,VALID,0,VALID,100,VALID,-0.0169808,VALID,20.8621,VALID,122,VALID,0,
2009-03-29, 00:30:00,VALID,917.227,VALID,0,VALID,100,VALID,-0.0169808,VALID,20.8591,VALID,122,VALID,0,
2009-03-29, 00:31:00,VALID,917.206,VALID,0,VALID,100,VALID,-0.0339617,VALID,20.8756,VALID,122,VALID,0,
2009-03-29, 00:32:01,VALID,917.189,VALID,0,VALID,100,VALID,-0.0169808,VALID,20.8916,VALID,122,VALID,0,
2009-03-29, 00:33:01,VALID,917.18,VALID,0,VALID,100,VALID,-0.0169808,VALID,20.9111,VALID,122,VALID,0,
2009-03-29, 00:34:00,VALID,917.168,VALID,0,VALID,100,VALID,0,VALID,20.9368,VALID,122,VALID,0,
2009-03-29, 00:35:00,VALID,917.151,VALID,0,VALID,100,VALID,0,VALID,20.9627,VALID,122,VALID,0,
2009-03-29, 00:36:00,VALID,917.157,VALID,0,VALID,100,VALID,0,VALID,20.9755,VALID,122,VALID,0,
2009-03-29, 00:37:00,VALID,917.142,VALID,0,VALID,100,VALID,-0.0169808,VALID,20.9825,VALID,122,VALID,0,
2009-03-29, 00:38:00,VALID,917.142,VALID,0,VALID,100,VALID,-0.0509425,VALID,21.0055,VALID,122,VALID,0,
2009-03-29, 00:39:00,VALID,917.156,VALID,0,VALID,100,VALID,-0.101885,VALID,21.0033,VALID,122,VALID,0,
2009-03-29, 00:40:00,VALID,917.156,VALID,0,VALID,100,VALID,-0.118866,VALID,20.9873,VALID,123,VALID,0,
2009-03-29, 00:41:00,VALID,917.158,VALID,0,VALID,100,VALID,-0.101885,VALID,20.9971,VALID,135,VALID,0,
2009-03-29, 00:42:01,VALID,917.167,VALID,0,VALID,100,VALID,-0.101885,VALID,20.9868,VALID,151,VALID,0,
2009-03-29, 00:43:00,VALID,917.16,VALID,0,VALID,100,VALID,-0.118866,VALID,20.9971,VALID,167,VALID,0,
2009-03-29, 00:44:00,VALID,917.165,VALID,0,VALID,100,VALID,-0.0849042,VALID,20.9835,VALID,186,VALID,0,
2009-03-29, 00:45:00,VALID,917.169,VALID,0,VALID,100,VALID,-0.101885,VALID,20.9678,VALID,174,VALID,0,
2009-03-29, 00:46:00,VALID,917.179,VALID,0,VALID,100,VALID,-0.0849042,VALID,20.9443,VALID,163,VALID,0,
2009-03-29, 00:47:00,VALID,917.181,VALID,0,VALID,100,VALID,-0.118866,VALID,20.9289,VALID,158,VALID,0,
2009-03-29, 00:48:01,VALID,917.173,VALID,0,VALID,100,VALID,-0.152827,VALID,20.9159,VALID,144,VALID,0,
2009-03-29, 00:49:00,VALID,917.167,VALID,0,VALID,100,VALID,-0.135847,VALID,20.9094,VALID,148,VALID,0,
2009-03-29, 00:50:00,VALID,917.156,VALID,0,VALID,100,VALID,-0.169808,VALID,20.8997,VALID,140,VALID,0,
2009-03-29, 00:51:00,VALID,917.135,VALID,0,VALID,100,VALID,-0.152827,VALID,20.8932,VALID,162,VALID,0,
2009-03-29, 00:52:00,VALID,917.132,VALID,0,VALID,100,VALID,-0.118866,VALID,20.8967,VALID,171,VALID,0,
2009-03-29, 00:53:00,VALID,917.137,VALID,0,VALID,100,VALID,-0.0509425,VALID,20.9024,VALID,176,VALID,0,
2009-03-29, 00:54:00,VALID,917.119,VALID,0,VALID,100,VALID,-0.0169808,VALID,20.9073,VALID,176,VALID,0,
2009-03-29, 00:55:00,VALID,917.108,VALID,0,VALID,100,VALID,-0.0339617,VALID,20.9305,VALID,176,VALID,0,
2009-03-29, 00:56:00,VALID,917.097,VALID,0,VALID,100,VALID,-0.0169808,VALID,20.9468,VALID,176,VALID,0,
2009-03-29, 00:57:00,VALID,917.097,VALID,0,VALID,100,VALID,-0.0339617,VALID,20.9698,VALID,176,VALID,0,
2009-03-29, 00:58:01,VALID,917.083,VALID,0,VALID,100,VALID,-0.0169808,VALID,21.0052,VALID,176,VALID,0,
2009-03-29, 00:59:01,VALID,917.056,VALID,0,VALID,100,VALID,-0.0339617,VALID,21.0312,VALID,176,VALID,0,
2009-03-29, 01:00:00,VALID,917.041,VALID,0,VALID,100,VALID,-0.0339617,VALID,21.0314,VALID,176,VALID,0,
2009-03-29, 01:01:00,VALID,917.029,VALID,0,VALID,100,VALID,-0.0339617,VALID,21.0179,VALID,176,VALID,0,
2009-03-29, 01:02:00,VALID,917.016,VALID,0,VALID,100,VALID,-0.0169808,VALID,21.0182,VALID,176,VALID,0,
2009-03-29, 01:03:00,VALID,917.003,VALID,0,VALID,100,VALID,-0.0339617,VALID,21.0217,VALID,176,VALID,0,
2009-03-29, 01:04:00,VALID,916.987,VALID,0,VALID,100,VALID,-0.0169808,VALID,21.0347,VALID,176,VALID,0,
2009-03-29, 01:05:01,VALID,916.977,VALID,0,VALID,100,VALID,-0.0169808,VALID,21.0347,VALID,176,VALID,0,
2009-03-29, 01:06:01,VALID,916.963,VALID,0,VALID,100,VALID,-0.0169808,VALID,21.0247,VALID,176,VALID,0,
2009-03-29, 01:07:01,VALID,916.961,VALID,0,VALID,100,VALID,-0.0339617,VALID,21.012,VALID,166,VALID,0,
2009-03-29, 01:08:00,VALID,916.938,VALID,0,VALID,100,VALID,-0.0169808,VALID,20.9757,VALID,153,VALID,0,
2009-03-29, 01:09:00,VALID,916.919,VALID,0,VALID,100,VALID,-0.0169808,VALID,20.9695,VALID,173,VALID,0,
2009-03-29, 01:10:00,VALID,916.908,VALID,0,VALID,100,VALID,0,VALID,20.9792,VALID,170,VALID,0,
2009-03-29, 01:11:01,VALID,916.877,VALID,0,VALID,100,VALID,0,VALID,20.9633,VALID,133,VALID,0,
2009-03-29, 01:12:01,VALID,916.847,VALID,0,VALID,100,VALID,0,VALID,20.9233,VALID,122,VALID,0,
2009-03-29, 01:13:01,VALID,916.813,VALID,0,VALID,100,VALID,-0.0169808,VALID,20.9005,VALID,113,VALID,0,
2009-03-29, 01:14:01,VALID,916.771,VALID,0,VALID,100,VALID,-0.0679233,VALID,20.8886,VALID,105,VALID,0,
2009-03-29, 01:15:00,VALID,916.757,VALID,0,VALID,100,VALID,-0.0169808,VALID,20.8821,VALID,105,VALID,0,
2009-03-29, 01:16:01,VALID,916.731,VALID,0,VALID,100,VALID,-0.0339617,VALID,20.8656,VALID,104,VALID,0,
2009-03-29, 01:17:01,VALID,916.713,VALID,0,VALID,100,VALID,-0.0509425,VALID,20.8464,VALID,95,VALID,0,
2009-03-29, 01:18:01,VALID,916.705,VALID,0,VALID,100,VALID,-0.0169808,VALID,20.8267,VALID,88,VALID,0,
2009-03-29, 01:19:01,VALID,916.683,VALID,0,VALID,100,VALID,-0.0169808,VALID,20.8107,VALID,86,VALID,0,
2009-03-29, 01:20:01,VALID,916.666,VALID,0,VALID,100,VALID,-0.0169808,VALID,20.8037,VALID,79,VALID,0,
2009-03-29, 01:21:01,VALID,916.638,VALID,0,VALID,100,VALID,0,VALID,20.7969,VALID,75,VALID,0,
2009-03-29, 01:22:01,VALID,916.615,VALID,0,VALID,100,VALID,-0.0339617,VALID,20.7969,VALID,52,VALID,0,
2009-03-29, 01:23:00,VALID,916.585,VALID,0,VALID,100,VALID,-0.0339617,VALID,20.804,VALID,42,VALID,0,
2009-03-29, 01:24:01,VALID,916.571,VALID,0,VALID,100,VALID,-0.0169808,VALID,20.8042,VALID,48,VALID,0,
2009-03-29, 01:25:01,VALID,916.555,VALID,0,VALID,100,VALID,-0.0509425,VALID,20.8329,VALID,49,VALID,0,
2009-03-29, 01:26:01,VALID,916.524,VALID,0,VALID,100,VALID,0,VALID,20.8299,VALID,58,VALID,0,
2009-03-29, 01:27:01,VALID,916.502,VALID,0,VALID,100,VALID,-0.0339617,VALID,20.8204,VALID,65,VALID,0,
2009-03-29, 01:28:01,VALID,916.466,VALID,0,VALID,100,VALID,-0.0169808,VALID,20.794,VALID,65,VALID,0,
2009-03-29, 01:29:01,VALID,916.458,VALID,0,VALID,100,VALID,-0.0339617,VALID,20.801,VALID,65,VALID,0,
2009-03-29, 01:30:01,VALID,916.439,VALID,0,VALID,100,VALID,-0.0509425,VALID,20.8237,VALID,65,VALID,0,
2009-03-29, 01:31:01,VALID,916.433,VALID,0,VALID,100,VALID,-0.0339617,VALID,20.8467,VALID,65,VALID,0,
2009-03-29, 01:32:01,VALID,916.433,VALID,0,VALID,100,VALID,-0.0169808,VALID,20.8594,VALID,65,VALID,0,
2009-03-29, 01:33:00,VALID,916.444,VALID,0,VALID,100,VALID,0,VALID,20.8756,VALID,65,VALID,0,
2009-03-29, 01:34:00,VALID,916.453,VALID,0,VALID,100,VALID,-0.0679233,VALID,20.9084,VALID,60,VALID,0,
2009-03-29, 01:35:00,VALID,916.462,VALID,0,VALID,100,VALID,-0.0679233,VALID,20.9016,VALID,357,VALID,0,
2009-03-29, 01:36:00,VALID,916.459,VALID,0,VALID,100,VALID,-0.0339617,VALID,20.8886,VALID,301,VALID,0,
2009-03-29, 01:37:00,VALID,916.468,VALID,0,VALID,100,VALID,-0.0679233,VALID,20.8948,VALID,301,VALID,0,
2009-03-29, 01:38:00,VALID,916.449,VALID,0,VALID,100,VALID,-0.0509425,VALID,20.8916,VALID,297,VALID,0.0359738,
2009-03-29, 01:39:00,VALID,916.444,VALID,0,VALID,100,VALID,-0.0339617,VALID,20.8689,VALID,259,VALID,0.0158155,
2009-03-29, 01:40:00,VALID,916.439,VALID,0,VALID,100,VALID,0,VALID,20.8459,VALID,245,VALID,0,
2009-03-29, 01:41:00,VALID,916.416,VALID,0,VALID,100,VALID,-0.0339617,VALID,20.8432,VALID,234,VALID,0,
2009-03-29, 01:42:00,VALID,916.387,VALID,0,VALID,100,VALID,-0.0169808,VALID,20.8464,VALID,234,VALID,0,
2009-03-29, 01:43:00,VALID,916.362,VALID,0,VALID,100,VALID,0,VALID,20.8786,VALID,234,VALID,0,
2009-03-29, 01:44:00,VALID,916.365,VALID,0,VALID,100,VALID,-0.0169808,VALID,20.8851,VALID,144,VALID,0,
2009-03-29, 01:45:00,VALID,916.381,VALID,0,VALID,100,VALID,-0.0169808,VALID,20.7967,VALID,102,VALID,0,
2009-03-29, 01:46:00,VALID,916.402,VALID,0,VALID,100,VALID,-0.0339617,VALID,20.7515,VALID,119,VALID,0,
2009-03-29, 01:47:00,VALID,916.407,VALID,0,VALID,100,VALID,-0.0169808,VALID,20.7228,VALID,108,VALID,0,
2009-03-29, 01:48:00,VALID,916.405,VALID,0,VALID,100,VALID,-0.0339617,VALID,20.7066,VALID,104,VALID,0,
2009-03-29, 01:49:00,VALID,916.372,VALID,0,VALID,100,VALID,-0.0169808,VALID,20.6768,VALID,81,VALID,0,
2009-03-29, 01:50:00,VALID,916.336,VALID,0,VALID,100,VALID,-0.0509425,VALID,20.6709,VALID,81,VALID,0.0379972,
2009-03-29, 01:51:00,VALID,916.304,VALID,0,VALID,100,VALID,-0.0509425,VALID,20.6482,VALID,79,VALID,0,
2009-03-29, 01:52:00,VALID,916.271,VALID,0,VALID,100,VALID,-0.0509425,VALID,20.6484,VALID,78,VALID,0,
2009-03-29, 01:53:00,VALID,916.236,VALID,0,VALID,100,VALID,0,VALID,20.6125,VALID,93,VALID,0,
2009-03-29, 01:54:00,VALID,916.219,VALID,0,VALID,100,VALID,0,VALID,20.5895,VALID,92,VALID,0,
2009-03-29, 01:55:00,VALID,916.2,VALID,0,VALID,100,VALID,-0.0339617,VALID,20.5635,VALID,80,VALID,0,
2009-03-29, 01:56:00,VALID,916.185,VALID,0,VALID,100,VALID,-0.0339617,VALID,20.5605,VALID,76,VALID,0,
2009-03-29, 01:57:00,VALID,916.176,VALID,0,VALID,100,VALID,-0.0339617,VALID,20.5443,VALID,88,VALID,0,
2009-03-29, 01:58:00,VALID,916.175,VALID,0,VALID,100,VALID,-0.0339617,VALID,20.5478,VALID,64,VALID,0,
2009-03-29, 01:59:00,VALID,916.159,VALID,0,VALID,100,VALID,-0.0169808,VALID,20.5705,VALID,46,VALID,0,
2009-03-29, 02:00:00,VALID,916.166,VALID,0,VALID,100,VALID,-0.0339617,VALID,20.5965,VALID,43,VALID,0,
2009-03-29, 02:01:00,VALID,916.166,VALID,0,VALID,100,VALID,-0.101885,VALID,20.5897,VALID,43,VALID,0,
2009-03-29, 02:02:00,VALID,916.19,VALID,0,VALID,100,VALID,-0.0339617,VALID,20.563,VALID,43,VALID,0,
2009-03-29, 02:03:00,VALID,916.205,VALID,0,VALID,100,VALID,-0.0169808,VALID,20.5735,VALID,43,VALID,0,
2009-03-29, 02:04:00,VALID,916.231,VALID,0,VALID,100,VALID,-0.0509425,VALID,20.5932,VALID,44,VALID,0,
2009-03-29, 02:05:00,VALID,916.254,VALID,0,VALID,100,VALID,-0.0339617,VALID,20.6222,VALID,45,VALID,0,
2009-03-29, 02:06:00,VALID,916.267,VALID,0,VALID,100,VALID,-0.0169808,VALID,20.6287,VALID,53,VALID,0,
2009-03-29, 02:07:00,VALID,916.279,VALID,0,VALID,100,VALID,-0.0339617,VALID,20.6447,VALID,53,VALID,0,
2009-03-29, 02:08:00,VALID,916.264,VALID,0,VALID,100,VALID,-0.0169808,VALID,20.6447,VALID,53,VALID,0,
2009-03-29, 02:09:00,VALID,916.264,VALID,0,VALID,100,VALID,0,VALID,20.6544,VALID,53,VALID,0,
2009-03-29, 02:10:00,VALID,916.244,VALID,0,VALID,100,VALID,0,VALID,20.6541,VALID,53,VALID,0,
2009-03-29, 02:11:00,VALID,916.224,VALID,0,VALID,100,VALID,0,VALID,20.6569,VALID,53,VALID,0,
2009-03-29, 02:12:00,VALID,916.197,VALID,0,VALID,100,VALID,0.0509425,VALID,20.6763,VALID,52,VALID,0,
2009-03-29, 02:13:00,VALID,916.18,VALID,0,VALID,100,VALID,0,VALID,20.6831,VALID,50,VALID,0,
2009-03-29, 02:14:00,VALID,916.162,VALID,0,VALID,100,VALID,0,VALID,20.6926,VALID,50,VALID,0,
2009-03-29, 02:15:00,VALID,916.136,VALID,0,VALID,100,VALID,-0.0169808,VALID,20.7258,VALID,50,VALID,0,
2009-03-29, 02:16:00,VALID,916.119,VALID,0,VALID,100,VALID,0,VALID,20.7577,VALID,44,VALID,0,
2009-03-29, 02:17:00,VALID,916.086,VALID,0,VALID,100,VALID,-0.0339617,VALID,20.7642,VALID,42,VALID,0,
2009-03-29, 02:18:00,VALID,916.067,VALID,0,VALID,100,VALID,0,VALID,20.7577,VALID,42,VALID,0,
2009-03-29, 02:19:00,VALID,916.049,VALID,0,VALID,100,VALID,0.0169808,VALID,20.755,VALID,53,VALID,0,
2009-03-29, 02:20:00,VALID,916.017,VALID,0,VALID,100,VALID,-0.0169808,VALID,20.6998,VALID,53,VALID,0,
2009-03-29, 02:21:00,VALID,915.991,VALID,0,VALID,100,VALID,0.0339617,VALID,20.6604,VALID,53,VALID,0,
2009-03-29, 02:22:00,VALID,915.971,VALID,0,VALID,100,VALID,0,VALID,20.6417,VALID,53,VALID,0,
2009-03-29, 02:23:00,VALID,915.944,VALID,0,VALID,100,VALID,0,VALID,20.6184,VALID,60,VALID,0,
2009-03-29, 02:24:00,VALID,915.926,VALID,0,VALID,100,VALID,0,VALID,20.6049,VALID,64,VALID,0,
2009-03-29, 02:25:00,VALID,915.917,VALID,0,VALID,100,VALID,0.0169808,VALID,20.6149,VALID,64,VALID,0,
2009-03-29, 02:26:00,VALID,915.92,VALID,0,VALID,100,VALID,-0.0169808,VALID,20.6019,VALID,64,VALID,0,
2009-03-29, 02:27:00,VALID,915.911,VALID,0,VALID,100,VALID,0,VALID,20.609,VALID,64,VALID,0,
2009-03-29, 02:28:00,VALID,915.92,VALID,0,VALID,100,VALID,0.0169808,VALID,20.5852,VALID,64,VALID,0,
2009-03-29, 02:29:00,VALID,915.917,VALID,0,VALID,100,VALID,0,VALID,20.5832,VALID,76,VALID,0,
2009-03-29, 02:30:00,VALID,915.912,VALID,0,VALID,100,VALID,0,VALID,20.5568,VALID,80,VALID,0,
2009-03-29, 02:31:00,VALID,915.891,VALID,0,VALID,100,VALID,0,VALID,20.55,VALID,74,VALID,0,
2009-03-29, 02:32:00,VALID,915.889,VALID,0,VALID,100,VALID,0.0169808,VALID,20.5438,VALID,79,VALID,0,
2009-03-29, 02:33:00,VALID,915.856,VALID,0,VALID,100,VALID,0.0169808,VALID,20.5433,VALID,79,VALID,0,
2009-03-29, 02:34:00,VALID,915.845,VALID,0,VALID,100,VALID,0,VALID,20.557,VALID,92,VALID,0,
2009-03-29, 02:35:00,VALID,915.827,VALID,0,VALID,100,VALID,0,VALID,20.5535,VALID,109,VALID,0,
2009-03-29, 02:36:00,VALID,915.814,VALID,0,VALID,100,VALID,0,VALID,20.5668,VALID,116,VALID,0,
2009-03-29, 02:37:00,VALID,915.818,VALID,0,VALID,100,VALID,-0.0169808,VALID,20.5568,VALID,113,VALID,0.09375,
2009-03-29, 02:38:00,VALID,915.802,VALID,0,VALID,100,VALID,-0.0679233,VALID,20.5375,VALID,98,VALID,0.0543241,
2009-03-29, 02:39:00,VALID,915.789,VALID,0,VALID,100,VALID,-0.0849042,VALID,20.5253,VALID,102,VALID,0,
2009-03-29, 02:40:00,VALID,915.761,VALID,0,VALID,100,VALID,-0.0679233,VALID,20.5056,VALID,104,VALID,0.0459872,
2009-03-29, 02:41:00,VALID,915.742,VALID,0,VALID,100,VALID,-0.101885,VALID,20.5029,VALID,97,VALID,0,
2009-03-29, 02:42:00,VALID,915.73,VALID,0,VALID,100,VALID,-0.101885,VALID,20.4961,VALID,108,VALID,0,
2009-03-29, 02:43:00,VALID,915.731,VALID,0,VALID,100,VALID,-0.0849042,VALID,20.4959,VALID,115,VALID,0,
2009-03-29, 02:44:00,VALID,915.724,VALID,0,VALID,100,VALID,-0.101885,VALID,20.4999,VALID,123,VALID,0,
2009-03-29, 02:45:00,VALID,915.735,VALID,0,VALID,100,VALID,-0.118866,VALID,20.4991,VALID,130,VALID,0,
2009-03-29, 02:46:00,VALID,915.743,VALID,0,VALID,100,VALID,-0.101885,VALID,20.5089,VALID,142,VALID,0,
2009-03-29, 02:47:00,VALID,915.74,VALID,0,VALID,100,VALID,-0.0679233,VALID,20.5124,VALID,132,VALID,0,
2009-03-29, 02:48:00,VALID,915.745,VALID,0,VALID,100,VALID,-0.0849042,VALID,20.5026,VALID,132,VALID,0,
2009-03-29, 02:49:00,VALID,915.76,VALID,0,VALID,100,VALID,-0.0849042,VALID,20.4861,VALID,130,VALID,0,
2009-03-29, 02:50:00,VALID,915.767,VALID,0,VALID,100,VALID,-0.101885,VALID,20.4896,VALID,127,VALID,0,
2009-03-29, 02:51:00,VALID,915.782,VALID,0,VALID,100,VALID,-0.101885,VALID,20.4967,VALID,124,VALID,0,
2009-03-29, 02:52:00,VALID,915.79,VALID,0,VALID,100,VALID,-0.0849042,VALID,20.4864,VALID,122,VALID,0,
2009-03-29, 02:53:00,VALID,915.8,VALID,0,VALID,100,VALID,-0.0849042,VALID,20.4832,VALID,115,VALID,0,
2009-03-29, 02:54:00,VALID,915.819,VALID,0,VALID,100,VALID,-0.0849042,VALID,20.4767,VALID,115,VALID,0,
2009-03-29, 02:55:00,VALID,915.828,VALID,0,VALID,100,VALID,-0.0849042,VALID,20.4764,VALID,115,VALID,0,
2009-03-29, 02:56:00,VALID,915.857,VALID,0,VALID,100,VALID,-0.101885,VALID,20.4964,VALID,119,VALID,0,
2009-03-29, 02:57:00,VALID,915.877,VALID,0,VALID,100,VALID,-0.118866,VALID,20.4994,VALID,125,VALID,0,
2009-03-29, 02:58:00,VALID,915.896,VALID,0,VALID,100,VALID,-0.0849042,VALID,20.5126,VALID,130,VALID,0,
2009-03-29, 02:59:00,VALID,915.941,VALID,0,VALID,100,VALID,-0.118866,VALID,20.5191,VALID,149,VALID,0,
2009-03-29, 03:00:00,VALID,915.984,VALID,0,VALID,100,VALID,-0.0849042,VALID,20.5156,VALID,151,VALID,0,
2009-03-29, 03:01:00,VALID,916.012,VALID,0,VALID,100,VALID,-0.101885,VALID,20.5218,VALID,188,VALID,0,
2009-03-29, 03:02:00,VALID,916.037,VALID,0,VALID,100,VALID,-0.101885,VALID,20.5486,VALID,219,VALID,0.031622,
2009-03-29, 03:03:00,VALID,916.063,VALID,0,VALID,100,VALID,-0.101885,VALID,20.5546,VALID,208,VALID,0,
2009-03-29, 03:04:00,VALID,916.089,VALID,0,VALID,100,VALID,-0.118866,VALID,20.5543,VALID,200,VALID,0.000710227,
2009-03-29, 03:05:00,VALID,916.092,VALID,0,VALID,100,VALID,-0.101885,VALID,20.5575,VALID,198,VALID,0.000887784,
2009-03-29, 03:06:00,VALID,916.08,VALID,0,VALID,100,VALID,-0.101885,VALID,20.5578,VALID,197,VALID,0.000381098,
2009-03-29, 03:07:00,VALID,916.077,VALID,0,VALID,100,VALID,-0.101885,VALID,20.5748,VALID,186,VALID,0.00118886,
2009-03-29, 03:08:00,VALID,916.067,VALID,0,VALID,100,VALID,-0.0849042,VALID,20.5803,VALID,205,VALID,0.00195313,
2009-03-29, 03:09:00,VALID,916.073,VALID,0,VALID,100,VALID,-0.0509425,VALID,20.5822,VALID,203,VALID,0,
2009-03-29, 03:10:00,VALID,916.064,VALID,0,VALID,100,VALID,-0.0509425,VALID,20.599,VALID,196,VALID,0,
2009-03-29, 03:11:00,VALID,916.067,VALID,0,VALID,100,VALID,0,VALID,20.6112,VALID,225,VALID,0,
2009-03-29, 03:12:00,VALID,916.053,VALID,0,VALID,100,VALID,-0.0339617,VALID,20.6147,VALID,233,VALID,0,
2009-03-29, 03:13:00,VALID,916.049,VALID,0,VALID,100,VALID,-0.0339617,VALID,20.6247,VALID,227,VALID,0,
2009-03-29, 03:14:00,VALID,916.051,VALID,0,VALID,100,VALID,-0.0509425,VALID,20.6214,VALID,235,VALID,0.190476,
2009-03-29, 03:15:00,VALID,916.025,VALID,0,VALID,100,VALID,-0.0169808,VALID,20.6152,VALID,222,VALID,0.10831,
2009-03-29, 03:16:00,VALID,916.017,VALID,0,VALID,100,VALID,-0.0169808,VALID,20.6019,VALID,220,VALID,0.0871094,
2009-03-29, 03:17:00,VALID,916.001,VALID,0,VALID,100,VALID,-0.0339617,VALID,20.6022,VALID,189,VALID,0.00558036,
2009-03-29, 03:18:00,VALID,916.019,VALID,0,VALID,100,VALID,0,VALID,20.5919,VALID,192,VALID,0,
2009-03-29, 03:19:00,VALID,916.022,VALID,0,VALID,100,VALID,-0.0509425,VALID,20.596,VALID,208,VALID,0,
2009-03-29, 03:20:00,VALID,916.02,VALID,0,VALID,100,VALID,-0.0339617,VALID,20.579,VALID,204,VALID,0,
2009-03-29, 03:21:00,VALID,916.015,VALID,0,VALID,100,VALID,-0.0169808,VALID,20.586,VALID,189,VALID,0,
2009-03-29, 03:22:00,VALID,916.004,VALID,0,VALID,100,VALID,-0.0169808,VALID,20.5727,VALID,201,VALID,0,
2009-03-29, 03:23:00,VALID,915.996,VALID,0,VALID,100,VALID,0,VALID,20.569,VALID,195,VALID,0,
2009-03-29, 03:24:00,VALID,915.994,VALID,0,VALID,100,VALID,-0.0169808,VALID,20.5719,VALID,197,VALID,0,
2009-03-29, 03:25:00,VALID,915.982,VALID,0,VALID,100,VALID,-0.0339617,VALID,20.579,VALID,197,VALID,0,
2009-03-29, 03:26:00,VALID,915.962,VALID,0,VALID,100,VALID,-0.0339617,VALID,20.5922,VALID,185,VALID,0,
2009-03-29, 03:27:00,VALID,915.948,VALID,0,VALID,100,VALID,0,VALID,20.5627,VALID,148,VALID,0,
2009-03-29, 03:28:00,VALID,915.92,VALID,0,VALID,100,VALID,-0.0169808,VALID,20.5498,VALID,144,VALID,0,
2009-03-29, 03:29:00,VALID,915.896,VALID,0,VALID,100,VALID,-0.0679233,VALID,20.547,VALID,144,VALID,0,
2009-03-29, 03:30:00,VALID,915.874,VALID,0,VALID,100,VALID,-0.0339617,VALID,20.5468,VALID,144,VALID,0,
2009-03-29, 03:31:00,VALID,915.87,VALID,0,VALID,100,VALID,-0.0509425,VALID,20.557,VALID,144,VALID,0,
2009-03-29, 03:32:00,VALID,915.875,VALID,0,VALID,100,VALID,0,VALID,20.5468,VALID,144,VALID,0,
2009-03-29, 03:33:00,VALID,915.877,VALID,0,VALID,100,VALID,-0.0169808,VALID,20.553,VALID,88,VALID,0,
2009-03-29, 03:34:00,VALID,915.855,VALID,0,VALID,100,VALID,-0.0509425,VALID,20.583,VALID,58,VALID,0,
2009-03-29, 03:35:00,VALID,915.857,VALID,0,VALID,100,VALID,0,VALID,20.5755,VALID,55,VALID,0,
2009-03-29, 03:36:00,VALID,915.846,VALID,0,VALID,100,VALID,-0.0509425,VALID,20.6049,VALID,41,VALID,0,
2009-03-29, 03:37:00,VALID,915.833,VALID,0,VALID,100,VALID,-0.0169808,VALID,20.6214,VALID,41,VALID,0,
2009-03-29, 03:38:00,VALID,915.83,VALID,0,VALID,100,VALID,0,VALID,20.6241,VALID,43,VALID,0,
2009-03-29, 03:39:00,VALID,915.814,VALID,0,VALID,100,VALID,-0.0339617,VALID,20.6339,VALID,53,VALID,0,
2009-03-29, 03:40:00,VALID,915.813,VALID,0,VALID,100,VALID,-0.0169808,VALID,20.6536,VALID,53,VALID,0,
2009-03-29, 03:41:00,VALID,915.811,VALID,0,VALID,100,VALID,-0.0169808,VALID,20.6801,VALID,52,VALID,0,
2009-03-29, 03:42:00,VALID,915.818,VALID,0,VALID,100,VALID,-0.0339617,VALID,20.7026,VALID,10,VALID,0,
2009-03-29, 03:43:00,VALID,915.819,VALID,0,VALID,100,VALID,0,VALID,20.7188,VALID,338,VALID,0,
2009-03-29, 03:44:00,VALID,915.833,VALID,0,VALID,100,VALID,-0.0169808,VALID,20.7253,VALID,338,VALID,0,
2009-03-29, 03:45:00,VALID,915.831,VALID,0,VALID,100,VALID,-0.0509425,VALID,20.722,VALID,339,VALID,0,
2009-03-29, 03:46:00,VALID,915.82,VALID,0,VALID,100,VALID,-0.0849042,VALID,20.7188,VALID,358,VALID,0,
2009-03-29, 03:47:00,VALID,915.816,VALID,0,VALID,100,VALID,-0.0339617,VALID,20.7353,VALID,20,VALID,0,
2009-03-29, 03:48:00,VALID,915.804,VALID,0,VALID,100,VALID,0,VALID,20.742,VALID,20,VALID,0,
2009-03-29, 03:49:00,VALID,915.801,VALID,0,VALID,100,VALID,-0.0169808,VALID,20.7088,VALID,20,VALID,0,
2009-03-29, 03:50:00,VALID,915.797,VALID,0,VALID,100,VALID,-0.0169808,VALID,20.6958,VALID,20,VALID,0,
2009-03-29, 03:51:00,VALID,915.811,VALID,0,VALID,100,VALID,-0.0169808,VALID,20.702,VALID,20,VALID,0,
2009-03-29, 03:52:00,VALID,915.807,VALID,0,VALID,100,VALID,0,VALID,20.7026,VALID,19,VALID,0,